Погода Борзя

Хотите узнать прогноз погоды Борзя? Тогда Вам сюда: Погода Борзя

Поиск расширенной информации на нашем сайте:

Полезная информация:

Новости сайта



02.01.2020
Опубликован Долгосрочный прогноз погоды по городам России и ближнего зарубежья на январь 2020 года.
Карты: Прогноз на январь и февраль 2020 года, Сравнение прогнозируемой аномалии приземной температуры воздуха на январь 2020 года по разным моделям.




Погода Борзя - сегодня

Время (UTC), дата Ветер
(°,м/с) 
Видим.   Явления Облачность Т
(°С)
Тd
(°С)
f(%) Тe
(°С)
Pmin
(гПа)
dP
(гПа)
Po
(мм)
O2
(г/м3)
Тmin Tmax R s Состояние
почвы
21 23.11.20 250 (З) н/о    10/0 средняя 
[Ac As]
-2.5 -6.2 76 -5  1021.4  -0.4  704  287           
00 24.11.20 270 (З) 20000 м    10/0 средняя 
[Ac As]
-2.4 -5.9 77 -4  1021.9  0.4  704  287  -3.6      равномерный
сухой снег
100% 
03 24.11.20 330 (СЗ) 5-10{10}  50000 м    9/1 1000 м средняя, верхняя 
[Cu hum|Ac lent|Ci sp]
+0.3 -6.1 62 -3  1021.3  0.3  705  284           
06 24.11.20 340 (С) 5{11}  20000 м    9/1 1000 м средняя, верхняя 
[Cu hum|Ac lent|Ci sp]
+0.1 -8.2 54 -3  1021.9  0.5  705  285           
09 24.11.20 330 (СЗ) н/о    9/0 средняя, верхняя 
[Ac lent|Ci sp]
-4.3 -10.5 62 -7  1025  1.5  706  290           
12 24.11.20 тихо ()   н/о    3/0 верхняя 
[Ci sp]
-12.5 -15 82 -13  1029.7  1.9  707  300    +0.8       
15 24.11.20 тихо ()   н/о    9/0 верхняя 
[Ci sp]
-15.3 -17.7 82 -15  1032.1  1.3  708  304           
18 24.11.20 070 (В) н/о    8/0 верхняя 
[Ci sp]
-19.1 -21.4 82 -19  1034.6  1.1  709  309           
21 24.11.20 тихо ()   н/о    6/0 верхняя 
[Ci sp]
-20.5 -23.1 80 -21  1036  0.8  710  311           
00 25.11.20 350 (С) 20000 м    1/0 средняя 
[Ac lent]
-14.4 -17.9 75 -18  1035.8  1.8  711  304  -21.8      равномерный
сухой снег
100% 
03 25.11.20 330 (СЗ) 6{10}  20000 м    3/0 верхняя 
[Ci fib]
-10.4 -17.1 58 -16  1036.2  1.6  712  300           
06 25.11.20 340 (С) 5{10}  20000 м    1/0 верхняя 
[Ci fib]
-8.5 -18 46 -13  1035.3  -0.2  712  298           
09 25.11.20 330 (СЗ) н/о    ясно 
-11.4 -19.6 51 -16  1038  1.5  713  301           
12 25.11.20 220 (ЮЗ) н/о    ясно 
-15.9 -20.8 66 -18  1041.3  1.6  715  307    -8.4       
15 25.11.20 210 (ЮЗ) н/о    ясно 
-19.5 -23.3 72 -20  1043.2  0.5  715  312           
18 25.11.20 070 (В) н/о    ясно 
-24.7 -27.8 75 -25  1044.8  -0.4  715  318           
21 25.11.20 тихо ()   н/о    ясно 
-26 -29.4 73 -26  1044.7  -0.5  714  320           
00 26.11.20 тихо ()   20000 м    ясно 
-26.2 -29.6 73 -26  1045.6  0.7  715  320  -27.1      равномерный
сухой снег
100% 
03 26.11.20 тихо ()   20000 м    4/0 верхняя 
[Ci fib]
-14.8 -19.9 65 -15  1041.5  0.1  715  306           
06 26.11.20 280 (З) 20000 м    3/0 верхняя 
[Ci fib]
-10.3 -19.3 48 -12  1038.4  -1.4  714  300           
09 26.11.20 240 (ЮЗ) н/о    3/0 верхняя 
[Ci sp]
-13.9 -19.2 64 -14  1039.9  0.3  714  305           
12 26.11.20 220 (ЮЗ) н/о    ясно 
-19.9 -22.9 77 -20  1042.9  0.8  715  312    -9.9       
15 26.11.20 тихо ()   н/о    н/о 
-23.3 -26.4 76 -23  1044.2  715  317           
18 26.11.20 тихо ()   н/о    н/о 
-24.8 -28.3 73 -25  1044.9  0.1  715  318           
21 26.11.20 260 (З) н/о    н/о 
-24.4 -27.3 77 -25  1044.3  -0.5  714  318           
Время (UTC), дата Ветер
(°,м/с) 
Видим.   Явления Облачность Т
(°С)
Тd
(°С)
f(%) Тe
(°С)
Pmin
(гПа)
dP
(гПа)
Po
(мм)
O2
(г/м3)
Тmin Tmax R s Состояние
почвы

Для получения пояснительной информации подведите курсор к названию столбца.

ПОГОДА Борзя - архив

Всё, что Вы хотите узнать о погоде Борзя - удобно и подробно!

Выберите нужную дату (начиная с 1 января 2019* года) и нажмите кнопку "Найти".
Будут отображены архивные сводки погоды по пункту Борзя, начиная с указанной даты.


Отображать данные в формате CSV (для использования в таблицах Excel)


Внимание! Наш архив погоды предназначен исключительно для личного некоммерческого использования в познавательных целях. Если Вам необходимы официальные справки о состоянии погоды (для производственных, юридических, коммерческих и т.п. целей), обращайтесь в органы Росгидромета.

*Примечание: данная дата относится к архиву по метеостанциям СССР (Россия, СНГ, Балтия).
Архив по метеостанциям Зарубежной Европы и Азии (кроме Китая) хранится 10 дней, по другим регионам земного шара (Китай, Африка, Америка, Австралия, Океания) - 1 день.

Борзя - район местоположения метеостанции


Название, широта, долгота, высота метеостанции:
Борзя 50.4°ш. 116.5°д. 676 м над ур. моря [Российская Федерация]

Дополнительная информация

В oтличие oт бoльшинства пoгoдных сайтoв мы публикуем пoдрoбную метеoинфoрмацию в детальнoм прoфессиoнальнoм фoрмате.

Характеристики температуры и влажнoсти вoздуха измеряются на высoте 2 м в тени вдали oт зданий и деревьев.
Скoрoсть ветра измеряется на высoте 10 м (на урoвне рoста челoвека скoрoсть ветра ниже в 1.5-2 раза). Если метеoстанция нахoдится в гoрoде или в лесу, тo скoрoсть ветра занижена на 2-4 м/с пo сравнению с oткрытым местoм. Скoрoсть ветра над акватoриями крупных рек и oзёр, а также на вершинах хoлмoв на 2-5 м/с выше, чем в oбычных услoвиях.
Атмoсфернoе давление в разных тoчках местнoсти мoжет значительнo oтличаться oт давления на метеoстанции, в зависимoсти oт услoвий рельефа (при пoдъёме на 10 м давление пoнижается примернo на 1 мм рт.ст.).